KEPLER-5 (AMIDALA) (46498 NORAD) Tracking and Keplerian Element Data

This shows tracking and keplerian element data for the satellite.

Feedback or suggestion? Click here.




ElementValue
Catalog46498
NameKEPLER-5 (AMIDALA)
Epoch Orbit484
Epoch Day304.9174146
Epoch Year2020
RAAN238.0532
Inclination97.6649
Eccentricity0.0013571
Argument of Perigee137.6512
Mean Anonmoly222.5763
Mean Motion15.02284656
Decay Rate3.58E-06
L11 46498U 20068N 20304.91741460 .00000358 00000-0 31654-4 0 9997
L22 46498 97.6649 238.0532 0013571 137.6512 222.5763 15.02284656 4841

Live tracking and technical data element details for KEPLER-5 (AMIDALA) (NORAD 46498). KEPLER-5 (AMIDALA) can be tracked NOW for your location showing map with azimuth and elevation plus other details from your city location.

Track the satellite on the map from your city or location and see movement details for azimuth, elevation, latitude, longitude, range, height, and movement on the map or in text.







IsCatalogInMostPopularTable: catalog: 46498, numindb: 6
Update: records affected: 1



GetName: 46498 KEPLER-5 (AMIDALA)

Hit Count: updated at: Sat, 31 Oct 2020 11:08:51 GMT